Showing default

COSMOS 2585, 63288

Orbit data source: Space-Track

COSMOS 2585, 63288 is a payload satellite owned by VVKO VKS (CIS) in LEO that was launched on Sun, 16 Mar 2025 UTC via an ANGARA-1.2 launch vehicle from the Plesetsk Missile And Space Complex (PKMTR). Payload-class satellites include a variety of spacecraft equipped with specific instruments for various scientific and technological missions. These include communications satellites like Starlink; space stations such as the ISS; scientific satellites like the Hubble; Earth observation satellites from companies like Planet Labs, Umbra, and HawkEye 360; GPS; miniature CubeSats for education and research; and military/defense satellites.

Loading next visibility...
Identifier
63288, 2025-054A
Orbit
LEO
Last TLE update
2 days ago
Origin
Manufacturer
Resehetnev ISS
Mission
Operational spacecraft
Bus & Motor
STRELA-3M, Unknown motor
Mass
280 kg wet, 280 kg dry
Launch date (UTC)
2025-03-16 (1 month ago)
Launch vehicle
ANGARA-1.2
Launch site
Plesetsk Missile And Space Complex (PKMTR)
Object type
Payload
Rocket body
Debris
Shape & HBR
Unknown
Radar Cross Section
Large (>1 m²)

Expand to show TLE details & history

TLE from 2 days ago
0 COSMOS 2585
1 63288U 25054A   25118.90558525  .00000033  00000-0  16933-3 0  9990
2 63288  82.4947 336.4953 0022699 217.4138 142.5362 12.42753338  5398
Epoch: 2025-04-28T21:44Z
Definitive object data (Epoch: 2025-04-28T21:44:02.565Z)
Latitude
-0.00004°
Longitude
153.37171°
Altitude
1,511.855 km
Speed
7.103 km/s
True Right ascension
22h 25m 58s
True Declination
0° 00' 00"
Sunlit
Object was in daylight at TLE epoch
Visualization TLE readout
Latitude
59.557°
Longitude
165.30173°
Altitude
1,521.028 km
Speed
7.103 km/s
Apparent Right ascension
03h 17m 27s
Apparent Declination
26° 49' 49"
Sunlit
Object is in daylight
Visualization observer readout
Local Sidereal Time
18:20:13
Azimuth
40.557° NE
Elevation
-10.863°
Doppler factor
1
Orbital elements
Apogee altitude
1,510.17 km
Perigee altitude
1,474.44 km
Semi-major axis
7,870.442 km
Eccentricity
0.0022699
Inclination
82.4947°
RAAN
336.4953°
Arg. of periapsis
217.4138°
True anomaly
142.69406°
Mean anomaly
142.5362°
Eccentric anomaly
142.61517°
Mean motion
3.10845 °/min
BSTAR
0.00016933
Orbital period
115.81 mins
Loading maneuver chart data...
Loading SW <> Apogee altitude chart data...
Loading historical data...
Loading historical data...
Loading historical data...
Loading historical data...
Loading historical data...
Loading historical data...
Loading historical data...
Other satellites on launch #54 in the year 2025 (2025-03-16 UTC)

COSMOS 2585 Visibility forecast

Observer location: undefined°, undefined°

Span
Click to sort rows by Start time (UTC) header in descending order
Start Az.
Max El. time (UTC)
Max El. Az.
Max El.
End time (UTC)
End Az.
16 mins2025-04-30 14:23:09.409Z162.691° S2025-04-30 14:31:09.409Z95.558° ESE38.679°2025-04-30 14:39:09.409Z18.173° NNE
14 mins2025-04-30 16:22:09.409Z233.057° WSW2025-04-30 16:28:09.409Z284.427° WNW28.809°2025-04-30 16:36:09.409Z350.809° N
12 mins2025-05-01 00:36:09.409Z21.2° NNE2025-05-01 00:42:09.409Z71.501° E22.82°2025-05-01 00:48:09.409Z117.435° SE
15 mins2025-05-01 02:32:09.409Z346.103° N2025-05-01 02:39:09.409Z272.583° WNW43.172°2025-05-01 02:47:09.409Z186.716° SSW
|